Terminal Aerodrome Forecast
Issued by NWS Pueblo, CO

Home | Current Version | Previous Version | Text Only | Print | Product List | Glossary On
Versions: 1 2 3 4 5 6 7 8 9 10 11 12 13 14 15 16 17 18 19 20 21 22 23 24 25 26 27 28 29 30 31 32 33 34 35 36 37 38 39 40 41 42 43 44 45 46 47 48 49 50
000
FTUS45 KPUB 271127
TAFCOS
TAF
KCOS 271127Z 2712/2812 07009KT P6SM VCSH SCT004 SCT012 BKN040
      TEMPO 2712/2715 5SM -SHRA BR SCT004 OVC012
     FM271700 01012KT P6SM SCT015 BKN035
     FM272100 01012KT P6SM SCT040 BKN080
     FM280300 01008KT P6SM SCT020 BKN040=

USA.gov is the U.S. government's official web portal to all federal, state and local government web resources and services.